QPF
0.00 0.00 0.00 0.00 0.00 0.00 0.00 0.00 0.00 0.00 0.00 0.00 0.00 0.00 0.00 0.00 0.00 0.00 0.00 0.00 0.00 0.00 0.00 0.00 0.00 0.00 0.00 0.00 0.00 0.00 0.00 0.00 0.00 0.00 0.00 0.00 0.00 0.00 0.00 0.00 0.00 0.00 0.00
0.00 0.00 0.00 0.00 0.00 0.00 0.00 0.00 0.00 0.00 0.00 0.00 0.00 0.00 0.00 0.00 0.00 0.00 0.00 0.00 0.00 0.00 0.00 0.00 0.00 0.00 0.00 0.00 0.00 0.00 0.00 0.00 0.00 0.00 0.00 0.00 0.00 0.00 0.00 0.00 0.00 0.00 0.00
0.00 0.00 0.00 0.00 0.00 0.00 0.00 0.00 0.00 0.00 0.00 0.00 0.00 0.00 0.00 0.00 0.00 0.00 0.00 0.00 0.00 0.00 0.00 0.00 0.00 0.00 0.00 0.00 0.00 0.00 0.00 0.00 0.00 0.00 0.00 0.00 0.00 0.00 0.00 0.00 0.00 0.00 0.00
0.00 0.00 0.00 0.00 0.00 0.00 0.00 0.00 0.00 0.00 0.00 0.00 0.00 0.00 0.00 0.00 0.00 0.00 0.00 0.00 0.00 0.00 0.00 0.00 0.00 0.00 0.00 0.00 0.00 0.00 0.00 0.00 0.00 0.00 0.00 0.00 0.00 0.00 0.00 0.00 0.00 0.00 0.00
0.00 0.00 0.00 0.00 0.00 0.00 0.00 0.00 0.00 0.00 0.00 0.00 0.00 0.00 0.00 0.00 0.00 0.00 0.00 0.00 0.00 0.00 0.00 0.00 0.00 0.00 0.00 0.00 0.00 0.00 0.00 0.00 0.00 0.00 0.00 0.00 0.00 0.00 0.00 0.00 0.00 0.00 0.00
0.00 0.00 0.00 0.00 0.00 0.00 0.00 0.00 0.00 0.00 0.00 0.00 0.00 0.00 0.00 0.00 0.00 0.00 0.00 0.00 0.00 0.00 0.00 0.00 0.00 0.00 0.00 0.00 0.00 0.00 0.00 0.00 0.00 0.00 0.00 0.00 0.00 0.00 0.00 0.00 0.00 0.00 0.00
0.00 0.00 0.00 0.00 0.00 0.00 0.00 0.00 0.00 0.00 0.00 0.00 0.00 0.00 0.00 0.00 0.00 0.00 0.00 0.00 0.00 0.00 0.00 0.00 0.00 0.00 0.00 0.00 0.00 0.00 0.00 0.00 0.00 0.00 0.00 0.00 0.00 0.00 0.00 0.00 0.00 0.00 0.00
0.00 0.00 0.00 0.00 0.00 0.00 0.00 0.00 0.00 0.00 0.00 0.00 0.00 0.00 0.00 0.00 0.00 0.00 0.00 0.00 0.00 0.00 0.00 0.00 0.00 0.00 0.00 0.00 0.00 0.00 0.00 0.00 0.00 0.00 0.00 0.00 0.00 0.00 0.00 0.00 0.00 0.00 0.00
0.00 0.00 0.00 0.00 0.00 0.00 0.00 0.00 0.00 0.00 0.00 0.00 0.00 0.00 0.00 0.00 0.00 0.00 0.00 0.00 0.00 0.00 0.00 0.00 0.00 0.00 0.00 0.00 0.00 0.00 0.00 0.00 0.00 0.00 0.00 0.00 0.00 0.00 0.00 0.00 0.00 0.00 0.00
0.00 0.00 0.00 0.00 0.00 0.00 0.00 0.00 0.00 0.00 0.00 0.00 0.00 0.00 0.00 0.00 0.00 0.00 0.00 0.00 0.00 0.00 0.00 0.00 0.00 0.00 0.00 0.00 0.00 0.00 0.00 0.00 0.00 0.00 0.00 0.00 0.00 0.00 0.00 0.00 0.00 0.00 0.00
0.00 0.00 0.00 0.00 0.00 0.00 0.00 0.00 0.00 0.00 0.00 0.00 0.00 0.00 0.00 0.00 0.00 0.00 0.00 0.00 0.00 0.00 0.00 0.00 0.00 0.00 0.00 0.00 0.00 0.00 0.00 0.00 0.00 0.00 0.00 0.00 0.00 0.00 0.00 0.00 0.00 0.00 0.00
0.00 0.00 0.00 0.00 0.00 0.00 0.00 0.00 0.00 0.00 0.00 0.00 0.00 0.00 0.00 0.00 0.00 0.00 0.00 0.00 0.00 0.00 0.00 0.00 0.00 0.00 0.00 0.00 0.00 0.00 0.00 0.00 0.00 0.00 0.00 0.00 0.00 0.00 0.00 0.00 0.00 0.00 0.00
0.00 0.00 0.00 0.00 0.00 0.00 0.00 0.00 0.00 0.00 0.00 0.00 0.00 0.00 0.00 0.00 0.00 0.00 0.00 0.00 0.00 0.00 0.00 0.00 0.00 0.00 0.00 0.00 0.00 0.00 0.00 0.00 0.00 0.00 0.00 0.00 0.00 0.00 0.00 0.00 0.00 0.00 0.00
0.00 0.00 0.00 0.00 0.00 0.00 0.00 0.00 0.00 0.00 0.00 0.00 0.00 0.00 0.00 0.00 0.00 0.00 0.00 0.00 0.00 0.00 0.00 0.00 0.00 0.00 0.00 0.00 0.00 0.00 0.00 0.00 0.00 0.00 0.00 0.00 0.00 0.00 0.00 0.00 0.00 0.00 0.00
0.00 0.00 0.00 0.00 0.00 0.00 0.00 0.00 0.00 0.00 0.00 0.00 0.00 0.00 0.00 0.00 0.00 0.00 0.00 0.00 0.00 0.00 0.00 0.00 0.00 0.00 0.00 0.00 0.00 0.00 0.00 0.00 0.00 0.00 0.00 0.00 0.00 0.00 0.00 0.00 0.00 0.00 0.00
0.00 0.00 0.00 0.00 0.00 0.00 0.00 0.00 0.00 0.00 0.00 0.00 0.00 0.00 0.00 0.00 0.00 0.00 0.00 0.00 0.00 0.00 0.00 0.00 0.00 0.00 0.00 0.00 0.00 0.00 0.00 0.00 0.00 0.00 0.00 0.00 0.00 0.00 0.00 0.00 0.00 0.00 0.00
0.00 0.00 0.00 0.00 0.00 0.00 0.00 0.00 0.00 0.00 0.00 0.00 0.00 0.00 0.00 0.00 0.00 0.00 0.00 0.00 0.00 0.00 0.00 0.00 0.00 0.00 0.00 0.00 0.00 0.00 0.00 0.00 0.00 0.00 0.00 0.00 0.00 0.00 0.00 0.00 0.00 0.00 0.00
0.00 0.00 0.00 0.00 0.00 0.00 0.00 0.00 0.00 0.00 0.00 0.00 0.00 0.00 0.00 0.00 0.00 0.00 0.00 0.00 0.00 0.00 0.00 0.00 0.00 0.00 0.00 0.00 0.00 0.00 0.00 0.00 0.00 0.00 0.00 0.00 0.00 0.00 0.00 0.00 0.00 0.00 0.00
0.00 0.00 0.00 0.00 0.00 0.00 0.00 0.00 0.00 0.00 0.00 0.00 0.00 0.00 0.00 0.00 0.00 0.00 0.00 0.00 0.00 0.00 0.00 0.00 0.00 0.00 0.00 0.00 0.00 0.00 0.00 0.00 0.00 0.00 0.00 0.00 0.00 0.00 0.00 0.00 0.00 0.00 0.00
0.00 0.00 0.00 0.00 0.00 0.00 0.00 0.00 0.00 0.00 0.00 0.00 0.00 0.00 0.00 0.00 0.00 0.00 0.00 0.00 0.00 0.00 0.00 0.00 0.00 0.00 0.00 0.00 0.00 0.00 0.00 0.00 0.00 0.00 0.00 0.00 0.00 0.00 0.00 0.00 0.00 0.00 0.00
0.00 0.00 0.00 0.00 0.00 0.00 0.00 0.00 0.00 0.00 0.00 0.00 0.00 0.00 0.00 0.00 0.00 0.00 0.00 0.00 0.00 0.00 0.00 0.00 0.00 0.00 0.00 0.00 0.00 0.00 0.00 0.00 0.00 0.00 0.00 0.00 0.00 0.00 0.00 0.00 0.00 0.00 0.00
0.00 0.00 0.00 0.00 0.00 0.00 0.00 0.00 0.00 0.00 0.00 0.00 0.00 0.00 0.00 0.00 0.00 0.00 0.00 0.00 0.00 0.00 0.00 0.00 0.00 0.00 0.00 0.00 0.00 0.00 0.00 0.00 0.00 0.00 0.00 0.00 0.00 0.00 0.00 0.00 0.00 0.00 0.00
0.00 0.00 0.00 0.00 0.00 0.00 0.00 0.00 0.00 0.00 0.00 0.00 0.00 0.00 0.00 0.00 0.00 0.00 0.00 0.00 0.00 0.00 0.00 0.00 0.00 0.00 0.00 0.00 0.00 0.00 0.00 0.00 0.00 0.00 0.00 0.00 0.00 0.00 0.00 0.00 0.00 0.00 0.00
0.00 0.00 0.00 0.00 0.00 0.00 0.00 0.00 0.00 0.00 0.00 0.00 0.00 0.00 0.00 0.00 0.00 0.00 0.00 0.00 0.00 0.00 0.00 0.00 0.00 0.00 0.00 0.00 0.00 0.00 0.00 0.00 0.00 0.00 0.00 0.00 0.00 0.00 0.00 0.00 0.00 0.00 0.00
0.00 0.00 0.00 0.00 0.00 0.00 0.00 0.00 0.00 0.00 0.00 0.00 0.00 0.00 0.00 0.00 0.00 0.00 0.00 0.00 0.00 0.00 0.00 0.00 0.00 0.00 0.00 0.00 0.00 0.00 0.00 0.00 0.00 0.00 0.00 0.00 0.00 0.00 0.00 0.00 0.00 0.00 0.00
0.00 0.00 0.00 0.00 0.00 0.00 0.00 0.00 0.00 0.00 0.00 0.00 0.00 0.00 0.00 0.00 0.00 0.00 0.00 0.00 0.00 0.00 0.00 0.00 0.00 0.00 0.00 0.00 0.00 0.00 0.00 0.00 0.00 0.00 0.00 0.00 0.00 0.00 0.00 0.00 0.00 0.00 0.00
MSLP
1006.20 1006.20 1006.20 1006.16 1006.19 1006.56 1006.73 1006.91 1007.11 1007.62 1008.10 1008.44 1008.70 1009.26 1009.81 1010.35 1010.79 1011.33 1011.68 1012.01 1012.28 1012.50 1012.84 1013.35 1013.58 1014.03 1014.32 1014.84 1015.15 1015.32 1015.56 1015.97 1016.11 1016.24 1016.51 1017.21 1017.68 1017.97 1018.53 1018.66 1019.03 1019.40 1019.45
1005.72 1005.65 1005.53 1005.40 1005.31 1005.38 1005.53 1005.83 1006.24 1006.54 1006.90 1007.21 1007.62 1008.01 1008.37 1008.77 1009.20 1009.81 1010.33 1010.58 1010.94 1011.30 1011.59 1012.25 1012.46 1013.07 1013.36 1013.83 1014.10 1014.27 1014.54 1014.87 1015.46 1015.84 1016.46 1017.31 1017.59 1018.10 1018.21 1018.64 1019.02 1019.16 1019.14
1005.49 1005.32 1004.99 1004.69 1004.63 1004.60 1004.70 1004.76 1005.03 1005.35 1005.75 1006.06 1006.35 1006.60 1006.84 1007.28 1007.74 1008.30 1008.84 1009.41 1009.81 1010.03 1010.44 1010.95 1011.33 1011.97 1012.47 1012.82 1013.07 1013.37 1013.73 1014.10 1014.53 1015.20 1016.11 1016.92 1017.46 1017.72 1018.52 1018.70 1018.88 1018.93 1018.81
1005.22 1005.10 1004.94 1004.64 1004.11 1003.63 1003.65 1003.89 1004.07 1004.17 1004.41 1004.84 1005.02 1005.29 1005.59 1005.86 1006.35 1006.95 1007.60 1008.09 1008.55 1008.86 1009.21 1009.56 1010.26 1010.62 1011.12 1011.69 1012.15 1012.47 1012.98 1013.40 1014.02 1014.82 1015.55 1016.46 1017.17 1017.81 1018.07 1018.54 1018.97 1019.12 1019.26
1004.63 1004.37 1004.14 1003.73 1003.62 1003.29 1003.19 1003.02 1003.10 1003.26 1003.22 1003.42 1003.75 1004.04 1004.41 1004.80 1005.15 1005.66 1006.12 1006.50 1007.02 1007.44 1007.80 1008.33 1008.85 1009.30 1009.84 1010.42 1011.03 1011.48 1012.09 1012.79 1013.74 1014.65 1015.45 1016.16 1016.72 1017.45 1017.72 1018.01 1018.43 1019.04 1019.09
1004.27 1003.94 1003.50 1003.40 1003.13 1002.88 1002.61 1002.47 1002.49 1002.50 1002.59 1002.75 1002.75 1002.94 1003.20 1003.38 1003.79 1004.35 1004.90 1005.51 1005.89 1006.35 1006.86 1007.40 1007.84 1008.41 1008.97 1009.39 1009.84 1010.28 1010.85 1011.65 1012.67 1013.70 1014.49 1015.14 1015.79 1016.08 1016.62 1017.33 1017.93 1018.79 1019.02
1004.50 1003.85 1003.31 1002.80 1002.61 1002.27 1001.99 1001.90 1001.74 1001.82 1001.88 1001.87 1001.95 1002.06 1002.11 1002.15 1002.70 1003.30 1003.83 1004.24 1004.71 1005.03 1005.62 1006.35 1007.09 1007.60 1008.10 1008.77 1009.36 1009.77 1010.28 1010.73 1011.12 1012.21 1013.48 1014.01 1014.77 1015.34 1015.98 1016.93 1017.40 1017.86 1018.07
1004.84 1004.05 1002.93 1002.24 1002.08 1001.69 1001.54 1001.43 1001.32 1001.21 1001.00 1000.97 1000.98 1001.15 1001.31 1001.16 1001.66 1002.37 1003.03 1003.28 1003.76 1003.98 1004.43 1005.13 1005.84 1006.70 1007.35 1007.98 1008.92 1009.75 1010.39 1010.88 1011.28 1011.82 1012.53 1013.09 1013.51 1014.33 1015.33 1015.95 1016.51 1017.40 1017.99
1005.70 1004.40 1003.41 1002.58 1001.74 1001.29 1001.31 1000.98 1000.66 1000.70 1000.50 1000.14 1000.03 1000.23 1000.46 1000.68 1000.95 1001.41 1002.28 1002.57 1002.82 1003.15 1003.42 1004.05 1004.77 1005.73 1006.62 1007.49 1008.53 1009.47 1010.42 1011.32 1011.53 1011.95 1012.51 1012.81 1013.14 1013.87 1014.89 1015.76 1016.34 1016.89 1017.55
1006.78 1005.59 1004.32 1003.16 1002.03 1001.49 1000.96 1000.38 1000.08 1000.03 999.56 999.56 999.51 999.54 999.67 1000.00 1000.33 1000.68 1001.21 1001.76 1002.51 1003.25 1004.02 1004.17 1004.47 1005.10 1006.21 1007.17 1007.93 1008.99 1010.10 1010.77 1011.41 1012.17 1012.66 1013.02 1013.23 1013.74 1014.41 1015.13 1015.64 1016.06 1016.63
1007.59 1006.18 1004.57 1003.02 1001.79 1000.82 1000.15 999.82 999.66 999.54 999.35 999.10 999.14 999.18 999.37 999.77 1000.04 1000.32 1000.84 1001.22 1001.94 1003.04 1003.70 1004.27 1004.74 1005.06 1005.70 1006.45 1007.07 1008.00 1008.75 1009.89 1010.89 1011.78 1012.49 1013.04 1013.41 1013.78 1014.32 1014.66 1015.13 1015.37 1015.67
1007.80 1006.24 1004.44 1002.88 1001.50 1000.48 999.92 999.53 999.27 999.10 999.19 998.93 998.77 998.89 998.92 999.19 999.30 999.57 999.92 1000.21 1000.97 1001.90 1002.76 1003.50 1004.17 1004.80 1005.46 1006.32 1007.16 1007.84 1008.60 1009.66 1010.70 1011.53 1012.32 1012.88 1013.40 1013.68 1014.11 1014.27 1014.72 1015.54 1015.72
1007.64 1006.03 1004.29 1002.65 1001.46 1000.35 999.66 999.20 999.18 998.87 998.59 998.18 998.15 998.18 998.28 998.62 998.99 999.14 999.57 1000.05 1000.61 1001.34 1002.09 1002.77 1003.72 1004.65 1005.31 1006.29 1006.93 1007.49 1008.31 1009.14 1009.98 1010.84 1011.40 1012.14 1012.54 1013.61 1014.28 1014.41 1014.58 1015.18 1015.66
1007.85 1005.80 1003.94 1002.43 1001.22 1000.22 999.43 998.94 998.70 998.37 998.00 997.76 997.51 997.31 997.45 998.00 998.43 998.77 999.22 999.86 1000.51 1001.35 1002.13 1002.92 1003.71 1004.59 1005.35 1006.16 1006.96 1007.48 1008.00 1008.52 1009.12 1009.94 1010.67 1011.59 1012.53 1013.10 1013.94 1014.22 1014.54 1015.27 1015.50
1008.07 1006.02 1003.69 1002.11 1001.09 1000.04 999.30 998.83 998.40 997.93 997.75 997.37 997.01 997.09 997.26 997.25 997.29 997.88 998.37 999.13 1000.07 1001.09 1002.04 1002.94 1003.79 1004.51 1005.28 1005.91 1006.62 1007.24 1007.95 1008.50 1008.88 1009.41 1010.26 1011.34 1012.26 1012.78 1013.35 1013.81 1014.19 1014.98 1015.11
1008.07 1006.03 1003.84 1002.06 1000.76 999.84 999.03 998.16 997.89 997.50 997.37 997.12 996.79 996.52 996.44 996.60 996.93 997.63 998.20 998.78 999.68 1000.45 1001.57 1002.41 1002.99 1003.69 1004.47 1005.12 1005.84 1006.65 1007.35 1008.11 1008.48 1008.90 1009.59 1010.73 1011.57 1012.17 1012.80 1013.55 1014.06 1014.56 1014.88
1008.38 1006.39 1003.98 1002.29 1000.84 999.84 998.95 998.32 997.59 996.93 996.51 996.53 996.58 996.44 996.39 996.46 996.81 997.33 997.65 998.23 999.19 1000.00 1000.53 1001.62 1002.49 1003.11 1003.74 1004.57 1005.21 1005.73 1006.69 1007.46 1008.18 1008.74 1009.27 1010.50 1011.30 1011.81 1012.37 1013.18 1013.77 1014.25 1014.69
1008.32 1006.52 1004.64 1002.76 1001.05 999.82 998.89 998.34 997.76 997.24 996.42 996.35 996.43 996.31 996.26 996.40 996.52 996.93 997.44 998.13 998.91 999.36 999.93 1000.24 1001.09 1001.86 1002.78 1003.61 1004.75 1005.15 1005.59 1006.73 1007.68 1008.47 1009.12 1009.92 1010.79 1011.41 1011.97 1012.57 1013.33 1014.09 1014.61
1008.52 1006.96 1005.50 1003.69 1001.76 1000.35 999.31 998.42 997.89 997.39 996.82 996.69 996.48 996.27 996.31 996.34 996.52 996.49 996.98 997.08 997.74 998.47 999.21 999.80 1000.02 1000.70 1001.25 1002.31 1003.28 1004.65 1005.38 1006.18 1007.16 1008.09 1008.69 1009.51 1010.37 1011.08 1011.78 1012.53 1013.23 1013.84 1014.45
1009.24 1007.75 1006.32 1004.70 1003.10 1001.49 1000.36 999.20 998.39 997.92 997.37 996.98 996.67 996.37 996.28 996.62 996.77 996.73 996.49 996.87 997.27 997.76 998.37 999.17 999.73 1000.23 1001.02 1000.96 1002.10 1003.57 1004.80 1006.27 1007.37 1007.80 1008.36 1009.41 1010.06 1010.72 1011.61 1012.57 1013.25 1013.78 1014.37
1010.56 1008.93 1007.45 1005.93 1004.53 1003.36 1002.47 1001.61 1000.30 999.34 998.32 997.65 997.16 996.95 996.47 996.48 996.80 996.87 996.68 996.81 997.16 997.39 997.78 998.36 999.22 999.91 1000.66 1000.64 1001.92 1003.11 1004.30 1005.81 1006.99 1007.66 1008.35 1009.29 1009.96 1010.79 1011.72 1012.56 1013.02 1013.52 1014.23
1011.82 1010.62 1009.24 1007.84 1006.25 1004.81 1004.04 1003.25 1002.09 1001.29 999.87 999.16 998.62 998.23 998.37 997.58 997.56 997.63 997.70 997.59 997.62 997.64 997.80 998.49 999.45 1000.32 1000.88 1001.25 1002.14 1003.09 1004.20 1005.45 1006.55 1007.27 1008.13 1009.05 1009.80 1010.67 1011.54 1012.23 1012.80 1013.35 1013.98
1012.86 1011.69 1010.57 1009.32 1007.99 1006.72 1005.84 1005.00 1003.97 1002.89 1001.69 1000.75 1000.54 999.82 1000.30 1000.12 999.97 999.84 999.57 999.35 999.27 999.01 999.04 999.21 999.93 1001.00 1001.66 1002.21 1002.77 1003.66 1004.45 1005.15 1005.96 1006.78 1007.78 1008.77 1009.53 1010.24 1010.83 1011.50 1012.23 1012.97 1013.63
1014.21 1013.12 1011.83 1010.71 1009.49 1008.54 1007.79 1006.97 1006.00 1004.83 1003.82 1002.85 1001.97 1001.89 1002.33 1002.15 1001.91 1001.86 1001.39 1000.99 1000.95 1000.64 1000.47 1000.41 1000.84 1001.61 1002.36 1002.75 1003.46 1004.38 1005.03 1005.51 1006.18 1006.84 1007.49 1008.47 1009.34 1010.03 1010.58 1011.07 1011.77 1012.47 1013.28
1015.49 1014.50 1013.46 1012.32 1011.12 1010.41 1009.43 1008.53 1007.68 1006.86 1005.79 1004.33 1003.95 1004.03 1004.14 1003.60 1003.38 1003.04 1003.16 1002.61 1002.42 1002.36 1002.29 1002.02 1002.10 1002.46 1002.96 1003.64 1004.37 1005.06 1005.30 1005.68 1006.22 1006.82 1007.64 1008.18 1008.89 1009.55 1010.02 1010.58 1011.25 1012.02 1012.81
1016.71 1015.78 1014.77 1013.92 1012.97 1012.04 1011.32 1010.31 1009.35 1008.63 1007.79 1006.82 1005.91 1005.93 1005.43 1004.96 1004.91 1004.62 1004.31 1003.92 1003.53 1003.55 1003.62 1003.67 1003.44 1003.52 1004.13 1004.62 1004.92 1005.44 1005.86 1006.02 1006.52 1007.02 1007.44 1008.02 1008.63 1009.24 1009.69 1010.21 1010.82 1011.59 1012.41
Thickness
5668 5670 5671 5671 5675 5672 5672 5672 5674 5672 5670 5669 5670 5666 5660 5656 5654 5649 5648 5645 5643 5639 5635 5631 5630 5628 5626 5621 5618 5616 5613 5607 5606 5604 5598 5587 5580 5574 5565 5560 5553 5547 5543
5658 5661 5665 5669 5672 5673 5674 5671 5670 5669 5668 5666 5664 5663 5662 5659 5656 5649 5645 5644 5641 5637 5633 5628 5629 5623 5622 5619 5617 5614 5610 5605 5600 5599 5587 5576 5571 5562 5558 5550 5543 5538 5535
5644 5651 5658 5663 5665 5667 5667 5669 5668 5666 5666 5663 5662 5663 5664 5662 5657 5650 5644 5638 5636 5637 5633 5630 5628 5622 5619 5616 5613 5610 5605 5601 5597 5590 5580 5569 5561 5554 5545 5540 5534 5530 5527
5633 5640 5644 5648 5655 5662 5663 5663 5665 5664 5662 5661 5664 5664 5662 5661 5658 5652 5645 5639 5636 5634 5632 5632 5626 5623 5618 5613 5608 5605 5600 5595 5586 5577 5568 5561 5552 5542 5536 5529 5521 5515 5511
5628 5634 5638 5643 5646 5653 5656 5658 5659 5660 5662 5661 5661 5661 5660 5658 5657 5652 5647 5642 5638 5635 5633 5629 5625 5621 5615 5612 5606 5602 5595 5586 5572 5566 5557 5549 5543 5534 5529 5521 5514 5504 5500
5618 5624 5629 5630 5635 5640 5647 5651 5652 5653 5654 5654 5656 5657 5656 5657 5653 5646 5643 5638 5634 5632 5629 5624 5622 5614 5610 5606 5602 5598 5593 5584 5573 5563 5553 5547 5539 5533 5523 5514 5507 5496 5492
5604 5605 5609 5617 5625 5632 5636 5640 5644 5647 5647 5649 5650 5651 5652 5653 5646 5641 5636 5635 5632 5631 5627 5621 5614 5609 5604 5597 5591 5587 5582 5578 5573 5562 5549 5542 5532 5523 5514 5504 5497 5490 5486
5586 5591 5599 5607 5613 5618 5621 5625 5631 5633 5639 5642 5645 5645 5645 5648 5641 5633 5627 5629 5626 5626 5623 5617 5611 5603 5596 5590 5582 5574 5568 5562 5557 5549 5542 5534 5528 5516 5505 5498 5490 5480 5471
5560 5572 5582 5589 5600 5604 5607 5613 5619 5619 5624 5632 5637 5637 5637 5638 5631 5627 5620 5620 5620 5618 5616 5611 5605 5596 5587 5579 5569 5561 5551 5542 5540 5533 5525 5520 5514 5503 5494 5484 5477 5471 5463
5531 5544 5558 5569 5578 5586 5595 5603 5607 5609 5617 5618 5619 5623 5624 5628 5619 5616 5613 5610 5603 5597 5590 5592 5589 5585 5574 5566 5559 5550 5541 5533 5524 5515 5509 5502 5497 5491 5482 5474 5466 5461 5456
5503 5519 5536 5551 5564 5575 5583 5589 5594 5596 5598 5601 5604 5605 5606 5606 5605 5602 5599 5595 5593 5582 5579 5575 5571 5568 5562 5556 5550 5542 5535 5522 5513 5503 5494 5487 5483 5477 5468 5462 5455 5451 5448
5484 5499 5517 5533 5546 5557 5563 5573 5576 5580 5582 5588 5590 5591 5592 5592 5592 5591 5589 5588 5582 5576 5570 5564 5558 5553 5547 5540 5532 5526 5519 5507 5497 5488 5479 5473 5467 5462 5454 5450 5444 5434 5431
5467 5483 5499 5516 5528 5537 5547 5555 5559 5564 5571 5578 5578 5583 5584 5577 5576 5577 5575 5571 5567 5562 5558 5551 5543 5537 5532 5524 5517 5512 5502 5493 5486 5478 5471 5463 5458 5446 5437 5433 5430 5421 5416
5447 5466 5484 5498 5510 5520 5530 5538 5544 5550 5556 5562 5565 5570 5570 5563 5562 5562 5560 5555 5549 5543 5537 5530 5525 5520 5514 5506 5498 5495 5488 5481 5475 5467 5460 5450 5441 5433 5425 5420 5415 5407 5403
5423 5444 5468 5482 5492 5504 5512 5518 5525 5533 5538 5543 5550 5549 5549 5550 5552 5548 5544 5538 5531 5523 5515 5510 5506 5502 5495 5489 5483 5478 5469 5463 5459 5453 5445 5434 5426 5420 5413 5408 5402 5393 5388
5402 5423 5446 5463 5476 5486 5494 5504 5508 5515 5518 5523 5528 5533 5533 5535 5532 5527 5523 5520 5515 5508 5500 5497 5495 5489 5482 5476 5471 5464 5456 5449 5444 5439 5433 5423 5414 5409 5402 5393 5387 5381 5377
5378 5397 5424 5440 5454 5466 5475 5482 5490 5497 5504 5507 5509 5512 5513 5514 5512 5508 5506 5503 5497 5492 5492 5485 5479 5474 5468 5461 5455 5451 5442 5435 5427 5424 5419 5407 5399 5394 5388 5382 5377 5371 5364
5357 5376 5396 5415 5432 5445 5455 5461 5468 5475 5485 5487 5488 5492 5494 5493 5493 5491 5488 5483 5479 5479 5477 5477 5469 5462 5455 5448 5440 5437 5434 5423 5416 5408 5401 5394 5386 5381 5376 5371 5365 5354 5347
5333 5350 5364 5383 5404 5419 5432 5441 5448 5455 5462 5462 5465 5470 5471 5474 5474 5476 5472 5474 5472 5467 5461 5458 5456 5449 5447 5440 5432 5420 5414 5409 5401 5392 5386 5379 5372 5367 5361 5355 5346 5339 5331
5305 5321 5336 5353 5369 5386 5399 5415 5423 5429 5435 5440 5445 5448 5450 5449 5450 5454 5458 5456 5453 5450 5445 5440 5438 5436 5430 5431 5421 5409 5401 5389 5379 5376 5370 5361 5357 5352 5345 5334 5327 5321 5315
5273 5290 5306 5323 5337 5349 5359 5369 5383 5396 5407 5415 5419 5419 5428 5429 5429 5430 5434 5435 5432 5430 5427 5427 5422 5417 5411 5410 5401 5392 5383 5371 5362 5356 5350 5343 5337 5332 5322 5315 5310 5305 5298
5245 5257 5271 5285 5301 5316 5325 5334 5345 5354 5369 5376 5382 5385 5385 5394 5395 5398 5399 5402 5404 5405 5404 5401 5394 5387 5383 5381 5376 5371 5363 5353 5344 5340 5334 5327 5321 5313 5304 5298 5294 5289 5282
5219 5230 5241 5253 5267 5279 5290 5299 5309 5319 5331 5339 5341 5348 5343 5347 5350 5352 5356 5361 5366 5369 5369 5368 5364 5356 5353 5351 5350 5345 5340 5335 5330 5325 5319 5310 5304 5297 5292 5287 5281 5274 5267
5191 5201 5212 5223 5235 5245 5253 5262 5272 5282 5291 5301 5308 5308 5305 5308 5312 5314 5321 5326 5328 5333 5335 5338 5336 5331 5327 5326 5322 5317 5314 5312 5308 5304 5298 5291 5284 5279 5275 5271 5265 5258 5249
5165 5172 5181 5192 5204 5211 5220 5229 5237 5244 5254 5266 5271 5272 5271 5277 5280 5284 5285 5293 5296 5298 5300 5304 5305 5304 5302 5298 5295 5292 5292 5291 5287 5280 5275 5272 5267 5263 5259 5254 5248 5240 5232
5142 5148 5155 5162 5169 5177 5184 5193 5201 5208 5216 5225 5234 5234 5240 5246 5247 5251 5255 5260 5266 5267 5268 5270 5274 5275 5273 5271 5271 5269 5265 5264 5260 5257 5255 5252 5248 5243 5240 5235 5229 5222 5213